DW2128 Weather Reports


Display with metric or nautical units.
time (UTC)temp
F
wind
direction
speed
MPH
gust
MPH
rain 1hr
in
rain 24hr
in
rain mn
in
humidity
%
barometer
mb
20260904123536 60 254 0.0 0.0 0.00 0.00 0.09 89 1011.4
20260904123340 60 254 0.0 0.0 0.00 0.00 0.09 89 1011.4
20260904122034 60 254 0.0 0.0 0.00 0.00 0.09 89 1011.3
20260904121823 60 254 0.0 0.0 0.00 0.00 0.09 89 1011.3
20260904120521 60 254 0.0 0.0 0.00 0.00 0.09 89 1011.2
20260904120326 60 254 0.0 0.0 0.00 0.00 0.09 89 1011.2
20260904115024 60 254 0.0 0.0 0.00 0.00 0.09 89 1011.1
20260904114829 60 254 0.0 0.0 0.00 0.00 0.09 89 1011.1
20260904113528 60 254 0.0 0.0 0.00 0.00 0.09 89 1011.1
20260904113341 60 254 0.0 0.0 0.00 0.00 0.09 89 1011.1
20260904112035 60 254 0.0 0.0 0.00 0.00 0.09 89 1011.2
20260904111840 60 254 0.0 0.0 0.00 0.00 0.09 89 1011.2
20260904110534 60 254 0.0 0.0 0.00 0.00 0.09 89 1011.1
20260904110323 60 254 0.0 0.0 0.00 0.00 0.09 89 1011.1
20260904105022 60 254 0.0 0.0 0.00 0.00 0.09 89 1011.0
20260904104826 60 254 0.0 0.0 0.00 0.00 0.09 89 1011.0
20260904103520 60 254 0.0 0.0 0.00 0.00 0.09 89 1011.0
20260904103345 60 254 0.0 0.0 0.00 0.00 0.09 89 1011.0
20260904102041 60 254 0.0 0.0 0.00 0.00 0.09 89 1011.0
20260904101829 60 254 0.0 0.0 0.00 0.00 0.09 89 1011.0
20260904100523 60 254 0.0 0.0 0.00 0.00 0.09 89 1011.0
20260904100328 60 254 0.0 0.0 0.00 0.00 0.09 89 1011.0
20260904095028 60 254 0.0 0.0 0.00 0.00 0.09 88 1011.0
20260904094836 60 254 0.0 0.0 0.00 0.00 0.09 88 1011.0
20260904093531 60 254 0.0 0.0 0.00 0.00 0.09 88 1011.0
20260904093340 60 254 0.0 0.0 0.00 0.00 0.09 88 1011.0
20260904092035 60 254 0.0 0.0 0.00 0.00 0.09 88 1011.0
20260904091841 60 254 0.0 0.0 0.00 0.00 0.09 88 1011.0
20260904090536 60 254 0.0 0.0 0.00 0.00 0.08 88 1011.0
20260904090322 60 254 0.0 0.0 0.00 0.00 0.08 88 1011.0
20260904085035 60 254 0.0 0.0 0.00 0.00 0.08 87 1011.0
20260904084844 60 254 0.0 0.0 0.00 0.00 0.08 87 1011.0
20260904083521 60 254 0.0 0.0 0.00 0.00 0.07 87 1011.0
20260904083346 60 254 0.0 0.0 0.00 0.00 0.06 87 1011.0
20260904082019 60 254 0.0 0.0 0.00 0.00 0.05 87 1011.0
20260904081844 60 254 0.0 0.0 0.00 0.00 0.04 87 1011.0
20260904080518 61 254 0.0 0.0 0.00 0.00 0.03 86 1011.0
20260904080332 61 254 0.0 0.0 0.00 0.00 0.03 86 1011.0
20260904075026 61 254 0.0 0.0 0.00 0.00 0.03 85 1011.0
20260904074832 61 254 0.0 0.0 0.00 0.00 0.03 85 1011.0
20260904073526 62 250 0.0 0.0 0.00 0.00 0.03 84 1011.0
20260904073331 62 250 0.0 0.0 0.00 0.00 0.03 84 1011.0
20260904072029 62 250 0.0 0.0 0.00 0.00 0.01 82 1010.8
20260904071859 62 251 0.0 0.0 0.00 0.00 0.01 82 1010.8
20260904070535 63 284 0.0 0.0 0.00 0.00 0.00 79 1010.7
20260904070341 64 284 0.0 0.0 0.00 0.00 0.00 78 1010.7
20260904065035 65 312 0.0 0.0 0.00 0.00 0.00 77 1010.4
20260904064825 65 312 0.0 0.0 0.00 0.00 0.00 76 1010.4
20260904063545 68 292 0.0 0.0 0.00 0.00 0.00 74 1010.3
20260904063331 68 55 0.0 0.0 0.00 0.00 0.00 74 1010.3
20260904062026 68 266 1.0 0.0 0.00 0.00 0.00 67 1010.2
20260904061831 68 266 1.0 0.0 0.00 0.00 0.00 67 1010.2
20260904060525 68 270 2.0 0.0 0.00 0.00 0.00 66 1010.2
20260904060334 68 271 2.0 0.0 0.00 0.00 0.00 66 1010.2
20260904055029 69 246 0.0 0.0 0.00 0.00 0.00 65 1010.4
20260904054834 69 246 0.0 0.0 0.00 0.00 0.00 65 1010.4
20260904053529 69 246 0.0 0.0 0.00 0.00 0.00 65 1010.5
20260904053354 69 246 0.0 0.0 0.00 0.00 0.00 65 1010.5
20260904052034 69 248 1.0 0.0 0.00 0.00 0.00 65 1010.6
20260904051843 69 248 1.0 0.0 0.00 0.00 0.00 65 1010.6
20260904050535 69 243 2.0 0.0 0.00 0.00 0.00 65 1010.7
20260904050341 69 230 1.0 0.0 0.00 0.00 0.00 66 1010.7
20260904045054 68 236 2.0 0.0 0.00 0.00 0.00 66 1010.8
20260904044822 69 227 1.0 0.0 0.00 0.00 0.00 66 1010.8
20260904043520 69 251 1.0 0.0 0.00 0.00 0.00 66 1010.6
20260904043330 69 240 2.0 0.0 0.00 0.00 0.00 66 1010.6
20260904042024 69 222 2.0 0.0 0.00 0.00 0.00 65 1010.5
20260904041832 69 220 2.0 0.0 0.00 0.00 0.00 65 1010.5
20260904040526 69 220 2.0 0.0 0.00 0.00 0.00 65 1010.4
20260904040351 69 205 1.0 0.0 0.00 0.00 0.00 65 1010.4
20260904035025 69 188 1.0 0.0 0.00 0.00 0.00 64 1010.3
20260904034858 69 200 1.0 0.0 0.00 0.00 0.00 64 1010.3
20260904033532 69 234 2.0 0.0 0.00 0.00 0.00 63 1010.0
20260904033317 69 246 1.0 0.0 0.00 0.00 0.00 63 1010.0
20260904032037 69 213 4.0 0.0 0.00 0.00 0.00 63 1010.0
20260904031845 69 232 3.0 0.0 0.00 0.00 0.00 63 1010.0
20260904030519 69 229 4.0 0.0 0.00 0.00 0.00 63 1009.9
20260904030347 69 266 3.0 0.0 0.00 0.00 0.00 63 1009.9
20260904025024 70 229 3.0 0.0 0.00 0.00 0.00 62 1009.9
20260904024830 70 255 3.0 0.0 0.00 0.00 0.00 62 1009.9
20260904023529 70 229 6.0 0.0 0.00 0.00 0.00 61 1009.9
20260904023319 70 238 5.0 0.0 0.00 0.00 0.00 61 1009.9
20260904022056 71 226 5.0 0.0 0.00 0.00 0.00 59 1009.9
20260904021820 71 219 5.0 0.0 0.00 0.00 0.00 58 1009.9
20260904020538 72 227 6.0 0.0 0.00 0.00 0.00 54 1009.8
20260904020325 72 220 6.0 0.0 0.00 0.00 0.00 56 1009.8
20260904015019 73 227 7.0 0.0 0.00 0.00 0.00 55 1009.9
20260904014829 73 236 6.0 0.0 0.00 0.00 0.00 55 1009.9
20260904013523 73 219 7.0 0.0 0.00 0.00 0.00 55 1009.7
20260904013333 73 238 7.0 0.0 0.00 0.00 0.00 54 1009.7
20260904012046 74 221 5.0 0.0 0.00 0.00 0.00 52 1009.7
20260904011855 74 241 5.0 0.0 0.00 0.00 0.00 51 1009.7
20260904010548 75 227 3.0 0.0 0.00 0.00 0.00 49 1009.6
20260904010318 75 277 3.0 0.0 0.00 0.00 0.00 49 1009.6
20260904005036 77 231 5.0 0.0 0.00 0.00 0.00 45 1009.6
20260904004902 78 230 3.0 0.0 0.00 0.00 0.00 45 1009.6
20260904003533 78 227 4.0 0.0 0.00 0.00 0.00 45 1009.6
20260904003321 78 200 5.0 0.0 0.00 0.00 0.00 45 1009.6
20260904002035 79 144 3.0 0.0 0.00 0.00 0.00 44 1009.7
20260904001825 79 234 4.0 0.0 0.00 0.00 0.00 45 1009.7
20260904000520 80 252 1.0 0.0 0.00 0.00 0.00 43 1009.9
20260904000326 80 233 1.0 0.0 0.00 0.00 0.00 43 1009.9
20260903235042 79 297 0.0 0.0 0.00 0.00 0.00 45 1009.9
20260903234827 79 297 0.0 0.0 0.00 0.00 0.00 45 1009.9
20260903233541 80 299 0.0 0.0 0.00 0.00 0.00 43 1010.0
20260903233328 80 299 0.0 0.0 0.00 0.00 0.00 45 1010.0
20260903232022 78 299 0.0 0.0 0.00 0.00 0.00 48 1010.3
20260903231829 77 299 0.0 0.0 0.00 0.00 0.00 51 1010.3
20260903230541 77 5 0.0 0.0 0.00 0.00 0.00 48 1010.4
20260903230324 77 5 0.0 0.0 0.00 0.00 0.00 47 1010.4
20260903225059 77 12 0.0 0.0 0.00 0.00 0.00 48 1010.5
20260903224828 78 12 0.0 0.0 0.00 0.00 0.00 48 1010.6
20260903223549 79 329 0.0 0.0 0.00 0.00 0.00 46 1010.7
20260903223336 79 327 0.0 0.0 0.00 0.00 0.00 46 1010.7
20260903222030 78 335 0.0 0.0 0.00 0.00 0.00 47 1011.0
20260903221819 78 334 0.0 0.0 0.00 0.00 0.00 46 1011.0
20260903220520 79 355 0.0 0.0 0.00 0.00 0.00 43 1011.0
20260903220350 79 252 0.0 0.0 0.00 0.00 0.00 44 1011.0
20260903215023 79 251 0.0 0.0 0.00 0.00 0.00 43 1011.0
20260903214829 79 250 1.0 0.0 0.00 0.00 0.00 44 1011.0
20260903213524 80 308 0.0 0.0 0.00 0.00 0.00 41 1011.0
20260903213328 80 308 0.0 0.0 0.00 0.00 0.00 41 1011.0
20260903212043 80 306 0.0 0.0 0.00 0.00 0.00 41 1011.0
20260903211834 80 305 0.0 0.0 0.00 0.00 0.00 41 1011.0
20260903210528 78 240 1.0 0.0 0.00 0.00 0.00 41 1011.2
20260903210317 78 240 1.0 0.0 0.00 0.00 0.00 41 1011.2
20260903205036 79 244 1.0 0.0 0.00 0.00 0.00 39 1011.3
20260903204841 79 246 0.0 0.0 0.00 0.00 0.00 40 1011.3
20260903203519 81 360 0.0 0.0 0.00 0.00 0.00 37 1011.4
20260903203328 81 360 0.0 0.0 0.00 0.00 0.00 38 1011.4
20260903202022 82 355 0.0 0.0 0.00 0.00 0.00 38 1011.5
20260903201829 83 355 0.0 0.0 0.00 0.00 0.00 35 1011.5
20260903200522 81 329 0.0 0.0 0.00 0.00 0.00 37 1011.6
20260903200335 81 327 0.0 0.0 0.00 0.00 0.00 37 1011.6
20260903195035 80 34 0.0 0.0 0.00 0.00 0.00 38 1011.9
20260903194821 80 34 0.0 0.0 0.00 0.00 0.00 37 1011.9
20260903193518 79 33 1.0 0.0 0.00 0.00 0.00 39 1012.0
20260903193344 79 33 1.0 0.0 0.00 0.00 0.00 40 1012.0
20260903192036 77 227 1.0 0.0 0.00 0.00 0.00 42 1012.3
20260903191825 77 227 0.0 0.0 0.00 0.00 0.00 41 1012.3
20260903190540 78 12 0.0 0.0 0.00 0.00 0.00 39 1012.6
20260903190329 78 12 0.0 0.0 0.00 0.00 0.00 40 1012.6
20260903185041 76 306 0.0 0.0 0.00 0.00 0.00 43 1012.8
20260903184823 76 11 0.0 0.0 0.00 0.00 0.00 42 1012.8
20260903183537 75 355 1.0 0.0 0.00 0.00 0.00 43 1013.0
20260903183328 75 360 0.0 0.0 0.00 0.00 0.00 44 1013.0
20260903182022 75 17 0.0 0.0 0.00 0.00 0.00 44 1013.1
20260903181827 75 17 0.0 0.0 0.00 0.00 0.00 45 1013.1
20260903180525 72 17 0.0 0.0 0.00 0.00 0.00 49 1013.1
20260903180336 72 17 0.0 0.0 0.00 0.00 0.00 48 1013.1
20260903175030 73 18 0.0 0.0 0.00 0.00 0.00 48 1013.0
20260903174838 73 19 0.0 0.0 0.00 0.00 0.00 48 1013.0
20260903173533 72 19 0.0 0.0 0.00 0.00 0.00 50 1013.3
20260903173339 71 19 0.0 0.0 0.00 0.00 0.00 50 1013.2
20260903172052 71 17 0.0 0.0 0.00 0.00 0.00 51 1013.4
20260903171820 71 17 0.0 0.0 0.00 0.00 0.00 52 1013.4
20260903170537 70 16 0.0 0.0 0.00 0.00 0.00 52 1013.6
20260903170343 70 16 0.0 0.0 0.00 0.00 0.00 54 1013.6
20260903165019 68 16 0.0 0.0 0.00 0.00 0.00 56 1013.6
20260903164824 68 16 0.0 0.0 0.00 0.00 0.00 56 1013.6
20260903163544 67 11 0.0 0.0 0.00 0.00 0.00 60 1013.6
20260903163332 67 10 0.0 0.0 0.00 0.00 0.00 61 1013.6
20260903162047 66 5 1.0 0.0 0.00 0.00 0.00 65 1013.6
20260903161832 66 17 1.0 0.0 0.00 0.00 0.00 65 1013.6
20260903160526 65 58 0.0 0.0 0.00 0.00 0.00 66 1013.9
20260903160333 65 61 0.0 0.0 0.00 0.00 0.00 66 1013.9
20260903155027 63 138 0.0 0.0 0.00 0.00 0.00 69 1014.1
20260903154857 63 139 0.0 0.0 0.00 0.00 0.00 68 1014.1
20260903153529 62 96 0.0 0.0 0.00 0.00 0.00 70 1014.1
20260903153336 62 76 0.0 0.0 0.00 0.00 0.00 70 1014.1
20260903152050 60 32 0.0 0.0 0.00 0.00 0.00 72 1014.1
20260903151855 60 32 0.0 0.0 0.00 0.00 0.00 72 1014.1
20260903150528 59 24 0.0 0.0 0.00 0.00 0.00 74 1014.2
20260903150401 59 24 0.0 0.0 0.00 0.00 0.00 74 1014.2
20260903145050 58 21 0.0 0.0 0.00 0.00 0.00 75 1014.1
20260903144859 58 21 0.0 0.0 0.00 0.00 0.00 75 1014.1
20260903143532 57 21 0.0 0.0 0.00 0.00 0.00 79 1014.0
20260903143341 56 21 0.0 0.0 0.00 0.00 0.00 79 1014.0
20260903142034 55 21 0.0 0.0 0.00 0.00 0.00 80 1013.7
20260903141824 55 20 0.0 0.0 0.00 0.00 0.00 81 1013.7
20260903140518 55 20 0.0 0.0 0.00 0.00 0.00 82 1013.7
20260903140344 55 20 0.0 0.0 0.00 0.00 0.00 82 1013.7
20260903135019 55 20 0.0 0.0 0.00 0.00 0.00 82 1013.6
20260903134825 55 20 0.0 0.0 0.00 0.00 0.00 82 1013.6
20260903133519 56 21 0.0 0.0 0.00 0.00 0.00 82 1013.6
20260903133334 56 20 0.0 0.0 0.00 0.00 0.00 82 1013.6
20260903132028 56 20 0.0 0.0 0.00 0.00 0.00 82 1013.6
20260903131835 56 20 0.0 0.0 0.00 0.00 0.00 82 1013.6
20260903130528 56 20 0.0 0.0 0.00 0.00 0.00 82 1013.6
20260903130334 56 20 0.0 0.0 0.00 0.00 0.00 82 1013.6
20260903125049 56 20 0.0 0.0 0.00 0.00 0.00 82 1013.6
20260903124820 56 20 0.0 0.0 0.00 0.00 0.00 82 1013.6